Change the Weather History Date:

Thursday, October 14, 2010

  Actual Average Record
Temperature  
Mean Temperature 47 °F -  
Max Temperature 55 °F 58 °F 73 °F (2002)
Min Temperature 39 °F 46 °F 37 °F (2002)
Degree Days  
Heating Degree Days 18    
Moisture  
Dew Point 46 °F    
Average Humidity 96    
Maximum Humidity 100    
Minimum Humidity 88    
Precipitation  
Precipitation 0.00 in - - ()
Sea Level Pressure  
Sea Level Pressure 30.17 in    
Wind  
Wind Speed 2 mph (SSE)    
Max Wind Speed 10 mph    
Max Gust Speed -    
Visibility 3 miles    
Events Fog , Rain    
Averages and records for this station are not official NWS values.
T = Trace of Precipitation, MM = Missing Value Source: NWS Daily Summary

Daily Weather History Graph

Daily Weather History Graph

Search for Another Location

Airport or City:

Trip Planner

Search our weather history database for the weather conditions in past years. The results will help you decide how hot, cold, wet, or windy it might be!

Date:

Astronomy

Oct. 14, 2010 Rise Set
Actual Time 7:30 AM PDT 6:33 PM PDT
Civil Twilight 7:00 AM PDT 7:02 PM PDT
Nautical Twilight 6:27 AM PDT 7:36 PM PDT
Astronomical Twilight 5:53 AM PDT 8:10 PM PDT
Moon 2:42 PM PDT (10/14) No Moon Set
Length of Visible Light 12h 01m
Length of Day
11h 03m
Waxing Crescent, 49% of the Moon is Illuminated
Oct 14
Waxing Crescent
Oct 14
First Quarter
Oct 22
Full
Oct 30
Last Quarter
Nov 5
New

Hourly Weather History & Observations

Time (PDT) Temp. Windchill Dew Point Humidity Pressure Visibility Wind Dir Wind Speed Gust Speed Precip Events Conditions
12:11 AM 44.6 °F - 44.6 °F 100% 30.14 in 5.0 mi Calm Calm - N/A   Clear
12:31 AM 44.6 °F 43.1 °F 44.6 °F 100% 30.14 in 5.0 mi ESE 3.5 mph - N/A   Clear
12:51 AM 44.6 °F 42.2 °F 42.8 °F 93% 30.14 in 4.0 mi ESE 4.6 mph - N/A   Clear
1:11 AM 46.4 °F - 44.6 °F 93% 30.14 in 3.0 mi Calm Calm - N/A   Clear
1:31 AM 42.8 °F - 42.8 °F 100% 30.14 in 1.0 mi Calm Calm - N/A   Scattered Clouds
1:51 AM 44.6 °F 43.1 °F 44.6 °F 100% 30.14 in 0.2 mi East 3.5 mph - N/A Rain Light Rain
2:11 AM 46.4 °F 45.2 °F 46.4 °F 100% 30.14 in 0.2 mi ESE 3.5 mph - N/A   Light Drizzle
2:31 AM 48.2 °F - 48.2 °F 100% 30.14 in 0.2 mi ESE 3.5 mph - N/A   Light Drizzle
2:52 AM 46.4 °F - 46.4 °F 100% 30.14 in 5.0 mi Calm Calm - N/A   Scattered Clouds
3:11 AM 46.4 °F - 46.4 °F 100% 30.14 in 3.0 mi Calm Calm - N/A   Clear
3:31 AM 44.6 °F - 44.6 °F 100% 30.14 in 2.5 mi Calm Calm - N/A   Clear
3:51 AM 42.8 °F - 42.8 °F 100% 30.14 in 0.5 mi Calm Calm - N/A Fog Fog
4:11 AM 42.8 °F - 41.0 °F 93% 30.14 in 1.0 mi Calm Calm - N/A   Mostly Cloudy
4:31 AM 42.8 °F 40.1 °F 41.0 °F 93% 30.14 in 2.5 mi ESE 4.6 mph - N/A   Clear
4:51 AM 42.8 °F - 42.8 °F 100% 30.15 in 5.0 mi Calm Calm - N/A   Clear
5:11 AM 41.0 °F - 39.2 °F 93% 30.15 in 0.5 mi Calm Calm - N/A Fog Fog
5:31 AM 41.0 °F - 39.2 °F 93% 30.15 in 4.0 mi Calm Calm - N/A   Mostly Cloudy
5:51 AM 39.2 °F - 39.2 °F 100% 30.15 in 0.2 mi Calm Calm - N/A Fog Fog
6:12 AM 39.2 °F 37.0 °F 39.2 °F 100% 30.16 in 1.2 mi East 3.5 mph - N/A   Scattered Clouds
6:31 AM 39.2 °F 37.0 °F 39.2 °F 100% 30.16 in 1.0 mi East 3.5 mph - N/A Rain Rain
7:11 AM 41.0 °F 37.1 °F 39.2 °F 93% 30.15 in 3.0 mi East 5.8 mph - N/A   Scattered Clouds
7:31 AM 41.0 °F 38.0 °F 39.2 °F 93% 30.15 in 0.8 mi East 4.6 mph - N/A   Mist
7:51 AM 42.8 °F - 41.0 °F 93% 30.16 in 1.2 mi Calm Calm - N/A   Mist
8:11 AM 39.2 °F 37.0 °F 39.2 °F 100% 30.16 in 0.2 mi East 3.5 mph - N/A Fog Fog
8:31 AM 42.8 °F - 42.8 °F 100% 30.16 in 5.0 mi Calm Calm - N/A   Clear
8:51 AM 44.6 °F 42.2 °F 42.8 °F 93% 30.17 in 1.5 mi East 4.6 mph - N/A   Mist
9:11 AM 44.6 °F - 44.6 °F 100% 30.18 in 10.0 mi Calm Calm - N/A   Clear
9:31 AM 46.4 °F - 46.4 °F 100% 30.18 in 10.0 mi Calm Calm - N/A   Clear
9:51 AM 48.2 °F - 46.4 °F 93% 30.18 in 10.0 mi Calm Calm - N/A   Clear
10:11 AM 50.0 °F - 48.2 °F 94% 30.19 in 10.0 mi Calm Calm - N/A   Clear
10:31 AM 51.8 °F - 50.0 °F 94% 30.19 in 2.5 mi West 3.5 mph - N/A   Clear
10:52 AM 50.0 °F - 48.2 °F 94% 30.19 in 1.8 mi Calm Calm - N/A   Mostly Cloudy
11:11 AM 50.0 °F - 50.0 °F 100% 30.20 in 0.5 mi West 3.5 mph - N/A Fog Fog
11:31 AM 51.8 °F - 50.0 °F 94% 30.19 in 3.0 mi SW 3.5 mph - N/A   Overcast
11:51 AM 51.8 °F - 51.8 °F 100% 30.19 in 3.0 mi WSW 4.6 mph - N/A   Scattered Clouds
12:11 PM 53.6 °F - 51.8 °F 94% 30.19 in 4.0 mi West 6.9 mph - N/A   Clear
12:31 PM 51.8 °F - 50.0 °F 94% 30.20 in 1.8 mi West 3.5 mph - N/A   Scattered Clouds
12:51 PM 51.8 °F - 48.2 °F 88% 30.21 in 2.5 mi West 4.6 mph - N/A   Mostly Cloudy
1:11 PM 51.8 °F - 48.2 °F 88% 30.21 in 1.0 mi WNW 4.6 mph - N/A   Overcast
1:31 PM 51.8 °F - 50.0 °F 94% 30.21 in 4.0 mi Calm Calm - N/A   Overcast
1:51 PM 53.6 °F - 51.8 °F 94% 30.21 in 7.0 mi Calm Calm - N/A   Overcast
2:11 PM 55.4 °F - 51.8 °F 88% 30.21 in 7.0 mi West 3.5 mph - N/A   Overcast
2:31 PM 55.4 °F - 51.8 °F 88% 30.21 in 7.0 mi West 3.5 mph - N/A   Overcast
2:51 PM 55.4 °F - 51.8 °F 88% 30.21 in 7.0 mi SSW 3.5 mph - N/A   Overcast
3:12 PM 55.4 °F - 51.8 °F 88% 30.21 in 5.0 mi Calm Calm - N/A   Overcast
3:32 PM 53.6 °F - 51.8 °F 94% 30.21 in 3.0 mi Calm Calm - N/A   Overcast
3:51 PM 53.6 °F - 51.8 °F 94% 30.21 in 2.0 mi Calm Calm - N/A   Overcast
4:11 PM 53.6 °F - 51.8 °F 94% 30.21 in 1.2 mi WSW 3.5 mph - N/A   Overcast
4:31 PM 53.6 °F - 53.6 °F 100% 30.21 in 1.2 mi Calm Calm - N/A   Overcast
4:52 PM 55.4 °F - 53.6 °F 94% 30.22 in 2.0 mi North 10.4 mph - N/A   Overcast
5:11 PM 53.6 °F - 53.6 °F 100% 30.22 in 5.0 mi NE 6.9 mph - N/A   Overcast
5:31 PM 55.4 °F - 53.6 °F 94% 30.21 in 10.0 mi East 3.5 mph - N/A   Overcast
5:51 PM 55.4 °F - 53.6 °F 94% 30.22 in 10.0 mi Calm Calm - N/A   Overcast
6:11 PM 55.4 °F - 53.6 °F 94% 30.22 in 10.0 mi North 3.5 mph - N/A   Overcast
6:31 PM 55.4 °F - 53.6 °F 94% 30.23 in 4.0 mi North 9.2 mph - N/A   Overcast
6:51 PM 55.4 °F - 53.6 °F 94% 30.24 in 7.0 mi North 6.9 mph - N/A   Overcast
7:11 PM 53.6 °F - 51.8 °F 94% 30.24 in 7.0 mi North 8.1 mph - N/A   Overcast
7:31 PM 55.4 °F - 53.6 °F 94% 30.25 in 10.0 mi North 6.9 mph - N/A   Overcast
7:51 PM 55.4 °F - 53.6 °F 94% 30.25 in 7.0 mi North 6.9 mph - N/A   Overcast
8:11 PM 55.4 °F - 53.6 °F 94% 30.25 in 7.0 mi North 6.9 mph - N/A   Overcast
8:31 PM 53.6 °F - 53.6 °F 100% 30.26 in 7.0 mi North 4.6 mph - N/A   Mostly Cloudy
8:51 PM 53.6 °F - 53.6 °F 100% 30.26 in 7.0 mi North 4.6 mph - N/A   Mostly Cloudy
9:11 PM 53.6 °F - 51.8 °F 94% 30.27 in 7.0 mi North 3.5 mph - N/A   Scattered Clouds
9:31 PM 53.6 °F - 51.8 °F 94% 30.27 in 10.0 mi Calm Calm - N/A   Scattered Clouds
9:51 PM 53.6 °F - 50.0 °F 88% 30.28 in 10.0 mi NNE 5.8 mph - N/A   Clear
10:12 PM 51.8 °F - 50.0 °F 94% 30.29 in 10.0 mi NE 3.5 mph - N/A   Clear
10:31 PM 51.8 °F - 48.2 °F 88% 30.29 in 10.0 mi NE 4.6 mph - N/A   Clear
10:52 PM 51.8 °F - 48.2 °F 88% 30.29 in 10.0 mi Calm Calm - N/A   Clear
11:11 PM 48.2 °F - 46.4 °F 93% 30.30 in 10.0 mi NE 4.6 mph - N/A   Clear
11:31 PM 48.2 °F - 48.2 °F 100% 30.29 in 10.0 mi ENE 4.6 mph - N/A   Clear